Location: *
(47.2969°N, 10.2930°E)
Time: 09:27:23
(UTC+00:00)

ERBS - Pass Details

Date: 09 April 2020
Orbit: 410 x 426 km, 57.0° (Epoch: 24 May)

Event Time Altitude Azimuth Distance (km) Brightness Sun altitude
Rises 20:09:58 0° 306° (NW) 2,393 7.7 -20.6°
Reaches altitude 10° 20:12:04 10° 304° (NW) 1,525 6.3 -20.8°
Enters shadow 20:15:11 65° 259° (WSW) 475 2.5 -21.2°
